View from above orbital plane
|
View from above satellite
|
Ground track
|
The orbit data is extracted from the following two-line orbital elements,
1 15370U 84111B 21112.53277069 .00000115 00000-0 10855-4 0 9997
2 15370 82.5137 129.9350 0022465 98.9851 261.3909 14.83754049951451
Epoch (UTC): | 22 April 2021 12:47:11 |
Eccentricity: | 0.0022465 |
inclination: | 82.5137° |
perigee height: | 602 km |
apogee height: | 633 km |
right ascension of ascending node: | 129.9350° |
argument of perigee: | 98.9851° |
revolutions per day: | 14.83754049 |
mean anomaly at epoch: | 261.3909° |
orbit number at epoch: | 95145 |
The dashed part of the orbit path shows where the satellite is in the earth's shadow,
|
|